JILIN-01 GAOFEN 2F (49338 NORAD) Tracking and Keplerian Element Data

This shows tracking and keplerian element data for the satellite.

Feedback or suggestion? Click here.




ElementValue
Catalog49338
NameJILIN-01 GAOFEN 2F
Epoch Orbit601
Epoch Day340.1078733
Epoch Year2021
RAAN84.9164
Inclination97.5457
Eccentricity0.0013213
Argument of Perigee133.827
Mean Anonmoly349.3966
Mean Motion15.09640535
Decay Rate1.867E-05
L11 49338U 21097A 21340.10787330 .00001867 00000+0 11982-3 0 9990
L22 49338 97.5457 84.9164 0013213 133.8270 349.3966 15.09640535 6017

Live tracking and technical data element details for JILIN-01 GAOFEN 2F (NORAD 49338). JILIN-01 GAOFEN 2F can be tracked NOW for your location showing map with azimuth and elevation plus other details from your city location.

Track the satellite on the map from your city or location and see movement details for azimuth, elevation, latitude, longitude, range, height, and movement on the map or in text.







IsCatalogInMostPopularTable: catalog: 49338, numindb: 6
Update: records affected: 1



GetName: 49338 JILIN-01 GAOFEN 2F

Hit Count: updated at: Mon, 06 Dec 2021 14:21:08 GMT